Flag for U.S.A. Weather past 2 weeks in San Antonio, Texas, U.S.A.

45 °F

Low clouds.

Feels Like: 44 °F
Forecast: 46 / 52 °F
Wind: 3 mph from Northeast

Location: San Antonio International Airport

Current Time: Nov 29, 2015 at 4:38:08 AM

Latest Report: Nov 29, 2015 at 3:51 AM

Visibility: 10 mi

Pressure: 30.12 "Hg

Humidity: 90%

Dew point: 42 °F

Location of San AntonioLocation

Historic Weather in San Antonio — Graph


San Antonio temperature yesterday

Maximum temperature yesterday: 46 °F (at 12:51 PM)
Minimum temperature yesterday: 43 °F (at 4:51 AM)
Average temperature yesterday: 45 °F

Past Weeks' High & Low Weather Summary

High79 °F (Nov 19, 2:51 PM)97% (Nov 25, 3:51 PM)30.35 "Hg (Nov 25, 3:51 PM)
Low34 °F (Nov 23, 4:51 AM)22% (Nov 18, 1:51 PM)29.52 "Hg (Nov 17, 4:51 AM)
Average61 °F70%30.04 "Hg
* Reported Nov 14 2:51 AM — Nov 29 2:51 AM, San Antonio, Weather by CustomWeather, © 2015

Note: Actual official high and low records may vary slightly from our data, if they occured in-between our weather recording intervals... More about our weather records


San Antonio weather history for previous 24 hours

Time TempWeatherWind HumidityBarometerVisibility
2:51 AM
Sun, Nov 29
45 °FMostly cloudy.8 mph90%30.14 "Hg7 mi
1:51 AM45 °FFog.10 mph86%30.18 "Hg5 mi
12:51 AM46 °FOvercast.8 mph79%30.17 "Hg10 mi
11:51 PM
Sat, Nov 28
46 °FOvercast.5 mph79%30.17 "Hg10 mi
10:51 PM46 °FOvercast.8 mph79%30.18 "Hg10 mi
9:51 PM46 °FOvercast.9 mph79%30.18 "Hg10 mi
8:51 PM46 °FOvercast.6 mph77%30.19 "Hg10 mi
7:51 PM46 °FOvercast.7 mph77%30.17 "Hg10 mi
6:51 PM46 °FOvercast.12 mph77%30.16 "Hg10 mi
5:51 PM46 °FOvercast.8 mph79%30.14 "Hg10 mi
4:51 PM46 °FOvercast.9 mph79%30.15 "Hg10 mi
3:51 PM46 °FLight rain. Overcast.9 mph83%30.14 "Hg10 mi
2:51 PM46 °FOvercast.12 mph83%30.13 "Hg10 mi
1:51 PM46 °FOvercast.12 mph79%30.15 "Hg10 mi
12:51 PM46 °FOvercast.10 mph79%30.17 "Hg10 mi
11:51 AM45 °FOvercast.12 mph82%30.19 "Hg10 mi
10:51 AM44 °FOvercast.12 mph82%30.21 "Hg10 mi
9:51 AM44 °FOvercast.10 mph82%30.20 "Hg10 mi
8:51 AM43 °FLight rain. Overcast.13 mph86%30.18 "Hg10 mi
7:51 AM43 °FLight rain. Mostly cloudy.12 mph86%30.15 "Hg8 mi
6:51 AM43 °FLight rain. Fog.14 mph93%30.14 "Hg6 mi
5:51 AM43 °FLight rain. Overcast.15 mph89%30.12 "Hg8 mi
4:51 AM43 °FLight rain. Fog.13 mph89%30.11 "Hg6 mi
Weather by CustomWeather, © 2015

See weather overviewHow to use our weather pages